星链-2479 (STARLINK-2479 )

导读 | 豆包AI

STARLINK-2479是美国SpaceX公司星链(Starlink)互联网星座中的一颗卫星,于2021年4月7日发射升空。星链项目计划部署数万颗低轨卫星,为全球偏远地区提供低延迟高速宽带服务。该卫星属于星链一代组网卫星,部署在近地轨道,配备氪离子推进和自主避碰系统,服务全球卫星互联网接入,助力构建覆盖全球的天基宽带网络,单星设计寿命约5年,是星链大规模星座组网中的组成单元。

基本信息
目录编号:
48136
目录名称:
STARLINK-2479
国际标识:
2021-027AW
轨道中心:
EARTH
卫星名称:
星链-2479
卫星全名:
星链-2479 (STARLINK-2479 )
卫星状态:
在轨 (已飞行1849 天)
发射日期:
2021-04-07 UTC
国别 :
美国 (US)
星等 :
--
轨道信息
数据来源 国际轨道数据
星历时间: 2026-04-30T02:21:20+0800
19小时前
查看轨道信息
半长轴: 6848.882km
偏心率: 0.0001196
轨道倾角: 53.158°
近地点辐角 100.344°
升交点赤经 288.108°
平近点角 259.769°
近地点: 469.925km
远地点: 471.565km
周期: 94.013分钟
每日圈数: 15.316986
详细信息
固有亮度:
5
最大亮度:
2.5
卫星平台:
Starlink V1.0
覆盖范围:
全球
运营商:
太空探索技术公司
运营商所在国:
美国
制造商(研发单位):
太空探索技术公司
制造商所在国:
美国
使用方式:
暂无
卫星简介
星链(Starlink)计划是由太空探索技术公司(SpaceX)提出的一个巨型低轨卫星互联网星座项目,计划在2019年至2024年间在太空搭建由约1.2万颗卫星组成的“星链”网络,其中1584颗将部署在地球上空550千米处的近地轨道,并从2020年开始工作。该卫星仍在工作。
2D轨道图
3D轨道图
轨道高度分析图
轨道倾角分析图
轨道综合分析图
查看轨道综合分析图